Time,TemperatureF,DewpointF,PressureIn,WindDirection,WindDirectionDegrees,WindSpeedMPH,WindSpeedGustMPH,Humidity,HourlyPrecipIn,Conditions,Clouds,dailyrainin,SoftwareType,DateUTC
2013-07-02 00:00:00,66.0,65.4,29.90,NW,323,0.0,0.0,98,0.00,,,0.00,Wunderground v.1.15,2013-07-02 04:00:00,
2013-07-02 00:05:00,65.8,65.2,29.90,NW,323,0.0,0.0,98,0.00,,,0.00,Wunderground v.1.15,2013-07-02 04:05:00,
2013-07-02 00:10:00,65.6,65.0,29.90,NW,323,0.0,0.0,98,0.00,,,0.00,Wunderground v.1.15,2013-07-02 04:10:00,
2013-07-02 00:15:00,65.5,64.9,29.90,NW,323,0.0,0.0,98,0.00,,,0.00,Wunderground v.1.15,2013-07-02 04:15:00,
2013-07-02 00:20:00,65.3,64.7,29.90,NW,323,0.0,0.0,98,0.00,,,0.00,Wunderground v.1.15,2013-07-02 04:20:00,
2013-07-02 00:25:00,65.3,64.7,29.90,NW,323,0.0,0.0,98,0.00,,,0.00,Wunderground v.1.15,2013-07-02 04:25:00,
2013-07-02 00:30:00,65.3,64.7,29.90,NW,323,0.0,0.0,98,0.00,,,0.00,Wunderground v.1.15,2013-07-02 04:30:00,
2013-07-02 00:40:00,65.2,64.6,29.90,NW,323,0.0,0.0,98,0.00,,,0.00,Wunderground v.1.15,2013-07-02 04:40:00,
2013-07-02 00:45:00,65.2,64.6,29.90,NW,323,0.0,0.0,98,0.00,,,0.00,Wunderground v.1.15,2013-07-02 04:45:00,
2013-07-02 00:55:00,65.2,64.6,29.89,NW,323,0.0,0.0,98,0.00,,,0.00,Wunderground v.1.15,2013-07-02 04:55:00,
2013-07-02 01:00:00,65.2,64.6,29.89,NW,323,0.0,0.0,98,0.00,,,0.00,Wunderground v.1.15,2013-07-02 05:00:00,
2013-07-02 01:10:00,65.0,64.4,29.89,NW,323,0.0,0.0,98,0.00,,,0.00,Wunderground v.1.15,2013-07-02 05:10:00,
2013-07-02 01:20:00,65.0,64.4,29.89,NW,323,0.0,0.0,98,0.00,,,0.00,Wunderground v.1.15,2013-07-02 05:20:00,
2013-07-02 01:30:00,64.8,64.2,29.89,NW,323,0.0,0.0,98,0.00,,,0.00,Wunderground v.1.15,2013-07-02 05:30:00,
2013-07-02 01:35:00,64.8,64.2,29.89,NW,323,0.0,0.0,98,0.00,,,0.00,Wunderground v.1.15,2013-07-02 05:35:00,
2013-07-02 01:40:00,64.8,64.2,29.88,NW,323,0.0,0.0,98,0.00,,,0.00,Wunderground v.1.15,2013-07-02 05:40:00,
2013-07-02 01:50:00,64.8,64.2,29.89,NW,323,0.0,0.0,98,0.00,,,0.00,Wunderground v.1.15,2013-07-02 05:50:00,
2013-07-02 02:00:00,64.8,64.2,29.89,NW,323,0.0,0.0,98,0.00,,,0.00,Wunderground v.1.15,2013-07-02 06:00:00,
2013-07-02 02:10:00,64.8,63.9,29.89,NW,323,0.0,0.0,97,0.00,,,0.00,Wunderground v.1.15,2013-07-02 06:10:00,
2013-07-02 02:20:00,64.8,63.9,29.89,NW,323,0.0,0.0,97,0.00,,,0.00,Wunderground v.1.15,2013-07-02 06:20:00,
2013-07-02 02:30:00,64.7,63.5,29.89,NW,323,0.0,0.0,96,0.00,,,0.00,Wunderground v.1.15,2013-07-02 06:30:00,
2013-07-02 02:40:00,64.7,63.2,29.88,NW,323,0.0,0.0,95,0.00,,,0.00,Wunderground v.1.15,2013-07-02 06:40:00,
2013-07-02 02:50:00,64.5,63.0,29.89,NW,323,0.0,0.0,95,0.00,,,0.00,Wunderground v.1.15,2013-07-02 06:50:00,
2013-07-02 03:00:00,64.3,63.1,29.89,NW,323,0.0,0.0,96,0.00,,,0.00,Wunderground v.1.15,2013-07-02 07:00:00,
2013-07-02 03:10:00,64.2,63.0,29.89,NW,323,0.0,0.0,96,0.00,,,0.00,Wunderground v.1.15,2013-07-02 07:10:00,
2013-07-02 03:20:00,64.0,62.8,29.89,NW,323,0.0,0.0,96,0.00,,,0.00,Wunderground v.1.15,2013-07-02 07:20:00,
2013-07-02 03:25:00,64.0,62.8,29.89,NW,323,0.0,0.0,96,0.00,,,0.00,Wunderground v.1.15,2013-07-02 07:25:00,
2013-07-02 03:30:00,64.0,62.8,29.89,NW,323,0.0,0.0,96,0.00,,,0.00,Wunderground v.1.15,2013-07-02 07:30:00,
2013-07-02 03:40:00,64.0,62.8,29.89,NW,323,0.0,0.0,96,0.00,,,0.00,Wunderground v.1.15,2013-07-02 07:40:00,
2013-07-02 03:50:00,63.9,62.7,29.90,NW,323,0.0,0.0,96,0.00,,,0.00,Wunderground v.1.15,2013-07-02 07:50:00,
2013-07-02 03:55:00,63.9,62.7,29.90,NW,323,0.0,0.0,96,0.00,,,0.00,Wunderground v.1.15,2013-07-02 07:55:00,
2013-07-02 04:00:00,63.7,62.5,29.90,NW,323,0.0,0.0,96,0.00,,,0.00,Wunderground v.1.15,2013-07-02 08:00:00,
2013-07-02 04:10:00,63.7,62.5,29.90,NW,323,0.0,0.0,96,0.00,,,0.00,Wunderground v.1.15,2013-07-02 08:10:00,
2013-07-02 04:20:00,63.5,62.3,29.90,NW,323,0.0,0.0,96,0.00,,,0.00,Wunderground v.1.15,2013-07-02 08:20:00,
2013-07-02 04:30:00,63.5,62.0,29.90,NW,323,0.0,0.0,95,0.00,,,0.00,Wunderground v.1.15,2013-07-02 08:30:00,
2013-07-02 04:40:00,63.7,62.2,29.90,NW,323,0.0,0.0,95,0.00,,,0.00,Wunderground v.1.15,2013-07-02 08:40:00,
2013-07-02 04:45:00,63.7,62.2,29.90,NW,323,0.0,0.0,95,0.00,,,0.00,Wunderground v.1.15,2013-07-02 08:45:00,
2013-07-02 04:50:00,63.7,62.2,29.91,NW,323,0.0,0.0,95,0.00,,,0.00,Wunderground v.1.15,2013-07-02 08:50:00,
2013-07-02 05:00:00,63.7,62.5,29.91,NW,323,0.0,0.0,96,0.00,,,0.00,Wunderground v.1.15,2013-07-02 09:00:00,
2013-07-02 05:10:00,63.5,62.3,29.92,NW,323,0.0,0.0,96,0.00,,,0.00,Wunderground v.1.15,2013-07-02 09:10:00,
2013-07-02 05:15:00,63.5,62.3,29.92,NW,323,0.0,0.0,96,0.00,,,0.00,Wunderground v.1.15,2013-07-02 09:15:00,
2013-07-02 05:25:00,63.5,62.6,29.92,NW,323,0.0,0.0,97,0.00,,,0.00,Wunderground v.1.15,2013-07-02 09:25:00,
2013-07-02 05:35:00,63.5,62.6,29.92,NW,323,0.0,0.0,97,0.00,,,0.00,Wunderground v.1.15,2013-07-02 09:35:00,
2013-07-02 05:45:00,63.5,62.6,29.92,NW,323,0.0,0.0,97,0.00,,,0.00,Wunderground v.1.15,2013-07-02 09:45:00,
2013-07-02 05:50:00,63.5,62.6,29.92,NW,323,0.0,0.0,97,0.00,,,0.00,Wunderground v.1.15,2013-07-02 09:50:00,
2013-07-02 05:55:00,63.7,62.8,29.92,NW,323,0.0,0.0,97,0.00,,,0.00,Wunderground v.1.15,2013-07-02 09:55:00,
2013-07-02 06:00:00,63.7,62.8,29.93,NW,323,0.0,0.0,97,0.00,,,0.00,Wunderground v.1.15,2013-07-02 10:00:00,
2013-07-02 06:05:00,63.5,62.6,29.92,NW,323,0.0,0.0,97,0.00,,,0.00,Wunderground v.1.15,2013-07-02 10:05:00,
2013-07-02 06:10:00,63.7,62.8,29.93,NW,323,0.0,0.0,97,0.00,,,0.00,Wunderground v.1.15,2013-07-02 10:10:00,
2013-07-02 06:15:00,63.7,62.8,29.93,NW,323,0.0,0.0,97,0.00,,,0.00,Wunderground v.1.15,2013-07-02 10:15:00,
2013-07-02 06:25:00,63.7,62.8,29.94,NW,323,0.0,0.0,97,0.00,,,0.00,Wunderground v.1.15,2013-07-02 10:25:00,
2013-07-02 06:35:00,63.7,62.8,29.94,NW,323,0.0,0.0,97,0.00,,,0.00,Wunderground v.1.15,2013-07-02 10:35:00,
2013-07-02 06:45:00,63.7,62.8,29.95,NW,323,0.0,0.0,97,0.00,,,0.00,Wunderground v.1.15,2013-07-02 10:45:00,
2013-07-02 06:50:00,63.7,63.1,29.95,NW,323,0.0,0.0,98,0.00,,,0.00,Wunderground v.1.15,2013-07-02 10:50:00,
2013-07-02 07:00:00,63.9,63.3,29.95,NW,323,0.0,0.0,98,0.00,,,0.00,Wunderground v.1.15,2013-07-02 11:00:00,
2013-07-02 07:10:00,63.9,63.3,29.95,NW,323,0.0,0.0,98,0.00,,,0.00,Wunderground v.1.15,2013-07-02 11:10:00,
2013-07-02 07:20:00,64.0,63.4,29.95,NW,323,0.0,0.0,98,0.00,,,0.00,Wunderground v.1.15,2013-07-02 11:20:00,
2013-07-02 07:30:00,64.2,63.6,29.95,NW,323,0.0,0.0,98,0.00,,,0.00,Wunderground v.1.15,2013-07-02 11:30:00,
2013-07-02 07:40:00,64.2,63.6,29.96,NW,323,0.0,0.0,98,0.00,,,0.00,Wunderground v.1.15,2013-07-02 11:40:00,
2013-07-02 07:45:00,64.3,63.7,29.96,NW,323,0.0,0.0,98,0.00,,,0.00,Wunderground v.1.15,2013-07-02 11:45:00,
2013-07-02 07:50:00,64.3,63.7,29.96,NW,323,0.0,0.0,98,0.00,,,0.00,Wunderground v.1.15,2013-07-02 11:50:00,
2013-07-02 08:00:00,64.7,63.8,29.97,NW,323,0.0,0.0,97,0.00,,,0.00,Wunderground v.1.15,2013-07-02 12:00:00,
2013-07-02 08:05:00,64.8,63.9,29.97,NW,323,0.0,0.0,97,0.00,,,0.00,Wunderground v.1.15,2013-07-02 12:05:00,
2013-07-02 08:10:00,65.0,64.1,29.97,North,11,0.0,0.0,97,0.00,,,0.00,Wunderground v.1.15,2013-07-02 12:10:00,
2013-07-02 08:20:00,65.2,64.3,29.98,North,360,0.0,0.0,97,0.00,,,0.00,Wunderground v.1.15,2013-07-02 12:20:00,
2013-07-02 08:30:00,65.3,64.1,29.98,North,360,0.0,0.0,96,0.00,,,0.00,Wunderground v.1.15,2013-07-02 12:30:00,
2013-07-02 08:40:00,65.5,64.3,29.98,North,5,0.0,1.0,96,0.00,,,0.00,Wunderground v.1.15,2013-07-02 12:40:00,
2013-07-02 08:45:00,65.6,64.4,29.98,North,5,1.0,1.0,96,0.00,,,0.00,Wunderground v.1.15,2013-07-02 12:45:00,
2013-07-02 08:55:00,66.3,65.1,29.98,North,5,0.0,0.0,96,0.00,,,0.00,Wunderground v.1.15,2013-07-02 12:55:00,
2013-07-02 09:00:00,66.9,65.4,29.98,North,5,0.0,0.0,95,0.00,,,0.00,Wunderground v.1.15,2013-07-02 13:00:00,
2013-07-02 09:10:00,67.1,65.0,29.98,North,5,0.0,0.0,93,0.00,,,0.01,Wunderground v.1.15,2013-07-02 13:10:00,
2013-07-02 09:20:00,67.4,65.6,29.98,North,5,0.0,0.0,94,0.00,,,0.01,Wunderground v.1.15,2013-07-02 13:20:00,
2013-07-02 09:30:00,68.1,66.3,29.98,North,5,0.0,0.0,94,0.00,,,0.01,Wunderground v.1.15,2013-07-02 13:30:00,
2013-07-02 09:40:00,69.1,67.0,29.98,North,5,0.0,0.0,93,0.00,,,0.01,Wunderground v.1.15,2013-07-02 13:40:00,
2013-07-02 09:50:00,69.4,66.3,29.98,North,9,0.0,0.0,90,0.00,,,0.01,Wunderground v.1.15,2013-07-02 13:50:00,
2013-07-02 10:00:00,70.4,66.7,29.98,North,9,0.0,0.0,88,0.00,,,0.01,Wunderground v.1.15,2013-07-02 14:00:00,
2013-07-02 10:10:00,70.8,66.4,29.99,North,9,0.0,0.0,86,0.00,,,0.01,Wunderground v.1.15,2013-07-02 14:10:00,
2013-07-02 10:15:00,71.3,67.6,29.98,North,9,0.0,0.0,88,0.00,,,0.01,Wunderground v.1.15,2013-07-02 14:15:00,
2013-07-02 10:20:00,71.8,66.7,29.98,North,9,0.0,0.0,84,0.00,,,0.01,Wunderground v.1.15,2013-07-02 14:20:00,
2013-07-02 10:30:00,72.3,66.8,29.98,North,9,0.0,0.0,83,0.00,,,0.01,Wunderground v.1.15,2013-07-02 14:30:00,
2013-07-02 10:40:00,73.3,67.8,29.98,North,9,0.0,0.0,83,0.00,,,0.01,Wunderground v.1.15,2013-07-02 14:40:00,
2013-07-02 10:50:00,74.4,66.7,29.98,North,5,0.0,0.0,77,0.00,,,0.01,Wunderground v.1.15,2013-07-02 14:50:00,
2013-07-02 11:00:00,74.9,67.2,29.98,North,5,0.0,0.0,77,0.00,,,0.01,Wunderground v.1.15,2013-07-02 15:00:00,
2013-07-02 11:10:00,75.6,67.5,29.98,North,5,0.0,0.0,76,0.00,,,0.01,Wunderground v.1.15,2013-07-02 15:10:00,
2013-07-02 11:20:00,76.1,68.7,29.99,North,355,0.0,0.0,78,0.00,,,0.01,Wunderground v.1.15,2013-07-02 15:20:00,
2013-07-02 11:25:00,76.3,68.9,29.99,North,355,0.0,0.0,78,0.00,,,0.01,Wunderground v.1.15,2013-07-02 15:25:00,
2013-07-02 11:30:00,76.7,67.4,29.99,WSW,245,0.0,0.0,73,0.00,,,0.01,Wunderground v.1.15,2013-07-02 15:30:00,
2013-07-02 11:40:00,77.4,69.2,29.99,South,190,1.0,1.0,76,0.00,,,0.01,Wunderground v.1.15,2013-07-02 15:40:00,
2013-07-02 11:45:00,77.7,69.1,29.99,South,190,0.0,1.0,75,0.00,,,0.01,Wunderground v.1.15,2013-07-02 15:45:00,
2013-07-02 11:55:00,77.9,68.1,29.99,South,180,1.0,1.0,72,0.00,,,0.01,Wunderground v.1.15,2013-07-02 15:55:00,
2013-07-02 12:00:00,77.0,66.9,29.99,South,191,1.0,4.0,71,0.00,,,0.01,Wunderground v.1.15,2013-07-02 16:00:00,
2013-07-02 12:10:00,76.1,68.4,29.98,SSW,192,0.0,0.0,77,0.00,,,0.01,Wunderground v.1.15,2013-07-02 16:10:00,
2013-07-02 12:20:00,77.9,67.7,29.98,SSW,210,0.0,0.0,71,0.00,,,0.01,Wunderground v.1.15,2013-07-02 16:20:00,
2013-07-02 12:30:00,78.3,67.7,29.98,SSW,194,1.0,1.0,70,0.00,,,0.01,Wunderground v.1.15,2013-07-02 16:30:00,
2013-07-02 12:35:00,78.5,68.3,29.98,SW,231,1.0,5.0,71,0.00,,,0.01,Wunderground v.1.15,2013-07-02 16:35:00,
2013-07-02 12:45:00,79.2,67.7,29.98,SSW,202,3.0,3.0,68,0.00,,,0.01,Wunderground v.1.15,2013-07-02 16:45:00,
2013-07-02 12:50:00,79.8,68.3,29.98,SSW,194,2.0,4.0,68,0.00,,,0.01,Wunderground v.1.15,2013-07-02 16:50:00,
2013-07-02 12:55:00,79.6,68.1,29.98,South,191,1.0,4.0,68,0.00,,,0.01,Wunderground v.1.15,2013-07-02 16:55:00,
2013-07-02 13:05:00,79.9,68.4,29.98,South,186,1.0,3.0,68,0.00,,,0.01,Wunderground v.1.15,2013-07-02 17:05:00,
2013-07-02 13:10:00,79.0,67.1,29.98,SW,229,2.0,2.0,67,0.00,,,0.01,Wunderground v.1.15,2013-07-02 17:10:00,
2013-07-02 13:20:00,79.0,67.5,29.98,SSW,207,1.0,1.0,68,0.00,,,0.01,Wunderground v.1.15,2013-07-02 17:20:00,
2013-07-02 13:30:00,80.1,68.2,29.98,South,184,0.0,4.0,67,0.00,,,0.01,Wunderground v.1.15,2013-07-02 17:30:00,
2013-07-02 13:40:00,80.3,69.2,29.97,SSW,207,1.0,1.0,69,0.00,,,0.01,Wunderground v.1.15,2013-07-02 17:40:00,
2013-07-02 13:50:00,79.9,68.0,29.97,West,267,2.0,2.0,67,0.00,,,0.01,Wunderground v.1.15,2013-07-02 17:50:00,
2013-07-02 14:00:00,80.7,66.5,29.97,SSW,193,1.0,1.0,62,0.00,,,0.01,Wunderground v.1.15,2013-07-02 18:00:00,
2013-07-02 14:05:00,81.1,66.4,29.97,SSW,210,1.0,6.0,61,0.00,,,0.01,Wunderground v.1.15,2013-07-02 18:05:00,
2013-07-02 14:10:00,80.9,67.1,29.97,SSW,204,3.0,3.0,63,0.00,,,0.01,Wunderground v.1.15,2013-07-02 18:10:00,
2013-07-02 14:20:00,80.1,67.7,29.97,SSW,205,2.0,2.0,66,0.00,,,0.01,Wunderground v.1.15,2013-07-02 18:20:00,
2013-07-02 14:30:00,80.5,66.7,29.97,SSW,209,3.0,3.0,63,0.00,,,0.01,Wunderground v.1.15,2013-07-02 18:30:00,
2013-07-02 14:35:00,80.3,67.0,29.97,SW,226,3.0,3.0,64,0.00,,,0.01,Wunderground v.1.15,2013-07-02 18:35:00,
2013-07-02 14:40:00,79.9,66.2,29.96,SW,231,1.0,2.0,63,0.00,,,0.01,Wunderground v.1.15,2013-07-02 18:40:00,
2013-07-02 14:50:00,80.9,65.7,29.96,SSW,205,2.0,5.0,60,0.00,,,0.01,Wunderground v.1.15,2013-07-02 18:50:00,
2013-07-02 15:00:00,81.1,66.8,29.96,South,189,2.0,2.0,62,0.00,,,0.01,Wunderground v.1.15,2013-07-02 19:00:00,
2013-07-02 15:05:00,81.1,66.4,29.96,WSW,248,1.0,2.0,61,0.00,,,0.01,Wunderground v.1.15,2013-07-02 19:05:00,
2013-07-02 15:10:00,80.9,67.1,29.96,SSW,203,1.0,1.0,63,0.00,,,0.01,Wunderground v.1.15,2013-07-02 19:10:00,
2013-07-02 15:20:00,79.9,66.2,29.97,SSW,213,1.0,1.0,63,0.00,,,0.01,Wunderground v.1.15,2013-07-02 19:20:00,
2013-07-02 15:25:00,78.8,66.0,29.97,SSW,205,2.0,2.0,65,0.00,,,0.01,Wunderground v.1.15,2013-07-02 19:25:00,
2013-07-02 15:30:00,77.9,67.3,29.97,SSW,201,2.0,2.0,70,0.00,,,0.02,Wunderground v.1.15,2013-07-02 19:30:00,
2013-07-02 15:35:00,76.7,67.4,29.97,South,184,1.0,2.0,73,0.00,,,0.02,Wunderground v.1.15,2013-07-02 19:35:00,
2013-07-02 15:45:00,74.2,67.6,29.99,SSE,165,1.0,1.0,80,0.13,,,0.04,Wunderground v.1.15,2013-07-02 19:45:00,
2013-07-02 15:50:00,73.3,67.5,29.99,SE,146,1.0,1.0,82,0.09,,,0.05,Wunderground v.1.15,2013-07-02 19:50:00,
2013-07-02 16:00:00,72.5,68.4,29.98,SSE,155,0.0,0.0,87,0.06,,,0.05,Wunderground v.1.15,2013-07-02 20:00:00,
2013-07-02 16:10:00,72.7,67.6,29.98,SSE,155,0.0,0.0,84,0.00,,,0.05,Wunderground v.1.15,2013-07-02 20:10:00,
2013-07-02 16:20:00,73.2,67.4,29.98,SSE,155,0.0,0.0,82,0.00,,,0.05,Wunderground v.1.15,2013-07-02 20:20:00,
2013-07-02 16:30:00,74.2,68.3,29.98,SSE,155,0.0,0.0,82,0.00,,,0.05,Wunderground v.1.15,2013-07-02 20:30:00,
2013-07-02 16:40:00,74.7,67.8,29.98,SSE,150,0.0,0.0,79,0.00,,,0.05,Wunderground v.1.15,2013-07-02 20:40:00,
2013-07-02 16:50:00,75.3,68.7,29.97,SSE,148,0.0,0.0,80,0.00,,,0.05,Wunderground v.1.15,2013-07-02 20:50:00,
2013-07-02 17:00:00,75.8,69.2,29.96,SE,146,0.0,0.0,80,0.00,,,0.05,Wunderground v.1.15,2013-07-02 21:00:00,
2013-07-02 17:10:00,76.0,69.4,29.97,NNE,15,0.0,0.0,80,0.00,,,0.05,Wunderground v.1.15,2013-07-02 21:10:00,
2013-07-02 17:20:00,75.6,69.0,29.97,NNE,21,0.0,0.0,80,0.00,,,0.05,Wunderground v.1.15,2013-07-02 21:20:00,
2013-07-02 17:25:00,75.3,69.1,29.97,NNE,17,1.0,1.0,81,0.00,,,0.05,Wunderground v.1.15,2013-07-02 21:25:00,
2013-07-02 17:30:00,75.1,68.9,29.97,NNE,17,0.0,0.0,81,0.00,,,0.05,Wunderground v.1.15,2013-07-02 21:30:00,
2013-07-02 17:35:00,74.9,68.7,29.97,NNE,17,0.0,0.0,81,0.00,,,0.05,Wunderground v.1.15,2013-07-02 21:35:00,
2013-07-02 17:40:00,74.7,68.1,29.97,NNE,18,1.0,1.0,80,0.00,,,0.05,Wunderground v.1.15,2013-07-02 21:40:00,
2013-07-02 17:50:00,75.1,69.2,29.97,NNE,17,0.0,0.0,82,0.00,,,0.05,Wunderground v.1.15,2013-07-02 21:50:00,
2013-07-02 18:00:00,75.6,68.6,29.97,NNE,15,1.0,1.0,79,0.00,,,0.05,Wunderground v.1.15,2013-07-02 22:00:00,
2013-07-02 18:05:00,75.6,69.0,29.97,NNE,15,1.0,1.0,80,0.00,,,0.05,Wunderground v.1.15,2013-07-02 22:05:00,
2013-07-02 18:15:00,75.8,69.2,29.97,NNE,15,0.0,0.0,80,0.00,,,0.05,Wunderground v.1.15,2013-07-02 22:15:00,
2013-07-02 18:20:00,75.6,69.0,29.97,NNE,15,0.0,0.0,80,0.00,,,0.05,Wunderground v.1.15,2013-07-02 22:20:00,
2013-07-02 18:30:00,75.4,68.8,29.97,NNE,15,0.0,0.0,80,0.00,,,0.05,Wunderground v.1.15,2013-07-02 22:30:00,
2013-07-02 18:40:00,75.6,69.4,29.97,NNE,15,0.0,0.0,81,0.00,,,0.05,Wunderground v.1.15,2013-07-02 22:40:00,
2013-07-02 18:50:00,75.3,67.6,29.97,NNE,15,0.0,0.0,77,0.00,,,0.05,Wunderground v.1.15,2013-07-02 22:50:00,
2013-07-02 18:55:00,74.9,66.8,29.97,NNE,15,0.0,0.0,76,0.00,,,0.05,Wunderground v.1.15,2013-07-02 22:55:00,
2013-07-02 19:05:00,74.7,66.6,29.98,NNE,17,0.0,0.0,76,0.00,,,0.05,Wunderground v.1.15,2013-07-02 23:05:00,
2013-07-02 19:10:00,74.7,67.4,29.98,NNE,17,0.0,0.0,78,0.00,,,0.05,Wunderground v.1.15,2013-07-02 23:10:00,
2013-07-02 19:20:00,74.6,66.9,29.98,NNE,17,0.0,0.0,77,0.00,,,0.05,Wunderground v.1.15,2013-07-02 23:20:00,
2013-07-02 19:30:00,74.4,67.5,29.99,NNE,17,0.0,0.0,79,0.00,,,0.05,Wunderground v.1.15,2013-07-02 23:30:00,
2013-07-02 19:40:00,73.9,67.0,30.00,NNE,17,0.0,0.0,79,0.00,,,0.05,Wunderground v.1.15,2013-07-02 23:40:00,
2013-07-02 19:45:00,73.7,67.1,30.00,NNE,17,0.0,0.0,80,0.00,,,0.05,Wunderground v.1.15,2013-07-02 23:45:00,
2013-07-02 19:50:00,73.5,66.9,30.00,NNE,17,0.0,0.0,80,0.00,,,0.05,Wunderground v.1.15,2013-07-02 23:50:00,
2013-07-02 20:00:00,73.2,66.7,30.01,NNE,17,0.0,0.0,80,0.00,,,0.05,Wunderground v.1.15,2013-07-03 00:00:00,
2013-07-02 20:10:00,73.0,66.8,30.01,NNE,17,0.0,0.0,81,0.00,,,0.05,Wunderground v.1.15,2013-07-03 00:10:00,
2013-07-02 20:15:00,72.8,66.6,30.01,NNE,17,0.0,0.0,81,0.00,,,0.05,Wunderground v.1.15,2013-07-03 00:15:00,
2013-07-02 20:20:00,72.7,66.5,30.01,NNE,17,0.0,0.0,81,0.00,,,0.05,Wunderground v.1.15,2013-07-03 00:20:00,
2013-07-02 20:30:00,72.5,67.0,30.02,NNE,17,0.0,0.0,83,0.00,,,0.05,Wunderground v.1.15,2013-07-03 00:30:00,
2013-07-02 20:40:00,72.1,66.3,30.02,NNE,17,0.0,0.0,82,0.00,,,0.05,Wunderground v.1.15,2013-07-03 00:40:00,
2013-07-02 20:50:00,71.6,66.2,30.02,NNE,17,0.0,0.0,83,0.00,,,0.05,Wunderground v.1.15,2013-07-03 00:50:00,
2013-07-02 21:00:00,71.3,65.2,30.02,NNE,17,0.0,0.0,81,0.00,,,0.05,Wunderground v.1.15,2013-07-03 01:00:00,
2013-07-02 21:05:00,71.3,65.2,30.03,NNE,17,0.0,0.0,81,0.00,,,0.05,Wunderground v.1.15,2013-07-03 01:05:00,
2013-07-02 21:10:00,71.1,65.0,30.03,NNE,17,0.0,0.0,81,0.00,,,0.05,Wunderground v.1.15,2013-07-03 01:10:00,
2013-07-02 21:15:00,71.1,65.0,30.03,NNE,17,0.0,0.0,81,0.00,,,0.05,Wunderground v.1.15,2013-07-03 01:15:00,
2013-07-02 21:20:00,71.1,65.0,30.03,NNE,17,0.0,0.0,81,0.00,,,0.05,Wunderground v.1.15,2013-07-03 01:20:00,
2013-07-02 21:25:00,70.9,64.8,30.03,NNE,17,0.0,0.0,81,0.00,,,0.05,Wunderground v.1.15,2013-07-03 01:25:00,
2013-07-02 21:30:00,70.6,64.5,30.04,NNE,17,0.0,0.0,81,0.00,,,0.05,Wunderground v.1.15,2013-07-03 01:30:00,
2013-07-02 21:35:00,70.4,64.6,30.04,NNE,17,0.0,0.0,82,0.00,,,0.05,Wunderground v.1.15,2013-07-03 01:35:00,
2013-07-02 21:40:00,70.3,64.9,30.03,NNE,17,0.0,0.0,83,0.00,,,0.05,Wunderground v.1.15,2013-07-03 01:40:00,
2013-07-02 21:45:00,69.9,64.8,30.04,NNE,17,0.0,0.0,84,0.00,,,0.05,Wunderground v.1.15,2013-07-03 01:45:00,
2013-07-02 21:50:00,69.6,64.5,30.04,NNE,17,0.0,0.0,84,0.00,,,0.05,Wunderground v.1.15,2013-07-03 01:50:00,
2013-07-02 21:55:00,69.4,64.7,30.05,NNE,17,0.0,0.0,85,0.00,,,0.05,Wunderground v.1.15,2013-07-03 01:55:00,
2013-07-02 22:00:00,69.3,64.9,30.05,NNE,17,0.0,0.0,86,0.00,,,0.05,Wunderground v.1.15,2013-07-03 02:00:00,
2013-07-02 22:10:00,68.9,64.9,30.06,NNE,17,0.0,0.0,87,0.00,,,0.05,Wunderground v.1.15,2013-07-03 02:10:00,
2013-07-02 22:20:00,68.8,65.1,30.06,NNE,17,0.0,0.0,88,0.00,,,0.05,Wunderground v.1.15,2013-07-03 02:20:00,
2013-07-02 22:30:00,68.9,65.2,30.06,NNE,17,0.0,0.0,88,0.00,,,0.05,Wunderground v.1.15,2013-07-03 02:30:00,
2013-07-02 22:35:00,68.9,65.2,30.07,NNE,17,0.0,0.0,88,0.00,,,0.05,Wunderground v.1.15,2013-07-03 02:35:00,
2013-07-02 22:50:00,68.9,65.2,30.07,NNE,17,0.0,0.0,88,0.00,,,0.05,Wunderground v.1.15,2013-07-03 02:50:00,
2013-07-02 23:00:00,68.9,64.9,30.08,SSE,153,0.0,0.0,87,0.08,,,0.07,Wunderground v.1.15,2013-07-03 03:00:00,
2013-07-02 23:15:00,68.4,65.0,30.06,SSE,153,0.0,0.0,89,0.14,,,0.10,Wunderground v.1.15,2013-07-03 03:15:00,
2013-07-02 23:20:00,68.3,65.3,30.06,SSE,153,0.0,0.0,90,0.06,,,0.10,Wunderground v.1.15,2013-07-03 03:20:00,
2013-07-02 23:30:00,67.9,65.5,30.06,SSE,153,0.0,0.0,92,0.00,,,0.10,Wunderground v.1.15,2013-07-03 03:30:00,
2013-07-02 23:35:00,67.9,65.5,30.06,SSE,153,0.0,0.0,92,0.00,,,0.10,Wunderground v.1.15,2013-07-03 03:35:00,
2013-07-02 23:55:00,66.9,65.1,30.06,SW,232,0.0,0.0,94,0.00,,,0.10,Wunderground v.1.15,2013-07-03 03:55:00,